Regional Weather Roundup
Issued by NWS

Home | Current Version | Previous Version | Graphics & Text | Print | Product List | Glossary On
Versions: 1 2 3 4 5 6 7 8 9 10 11 12 13 14 15 16 17 18 19 20 21 22 23 24 25 26 27 28 29 30 31 32 33 34 35 36 37 38 39 40 41 42 43 44 45 46 47 48 49 50
000
ASUS43 KLMK 221702
RWRKY
KENTUCKY REGIONAL WEATHER ROUNDUP
NATIONAL WEATHER SERVICE LOUISVILLE KY
100 PM EDT TUE JUL 22 2014

NOTE "FAIR" INDICATES FEW OR NO CLOUDS BELOW 12,000 FEET
WITH NO SIGNIFICANT WEATHER AND/OR OBSTRUCTIONS TO VISIBILITY.

KYZ001>023-026-027-061>063-070>075-221800-
WESTERN AND SOUTH CENTRAL KENTUCKY

CITY           SKY/WX    TMP DP  RH WIND       PRES   REMARKS
PADUCAH        SUNNY     89  67  47 CALM      30.09S HX  92
HENDERSON      SUNNY     90  70  51 CALM      30.08S HX  95
OWENSBORO      SUNNY     89  70  53 SW5       30.10R HX  94
HOPKINSVILLE   PTSUNNY   87  71  57 E7        30.09F HX  93
BOWLING GREEN  MOSUNNY   87  66  49 VRB3      30.10S
GLASGOW        MOSUNNY   87  68  54 SW10      30.11F HX  90
$$

KYZ024-025-028>034-038-045-046-053-221800-
NORTH CENTRAL KENTUCKY

CITY           SKY/WX    TMP DP  RH WIND       PRES   REMARKS
LOUISVILLE/SDF MOSUNNY   89  69  51 SE6       30.08F HX  93
LOUISVILLE/LOU PTSUNNY   89  69  51 W5        30.09F HX  93
FORT KNOX      MOSUNNY   86  72  62 W1        30.09F HX  93
$$

KYZ035>037-039>044-047>052-055>060-089>105-221800-
NORTHEAST KENTUCKY

CITY           SKY/WX    TMP DP  RH WIND       PRES   REMARKS
LEXINGTON      SUNNY     88  70  55 VRB5      30.12F HX  93
COVINGTON      MOSUNNY   87  65  47 SW7       30.10F
FRANKFORT      PTSUNNY   88  69  53 N5        30.10S HX  92
$$

KYZ054-064>069-076>088-106>120-221800-
SOUTHEAST KENTUCKY

CITY           SKY/WX    TMP DP  RH WIND       PRES   REMARKS
JACKSON        SUNNY     84  68  58 CALM      30.14F
LONDON         SUNNY     84  68  58 W3        30.14F
SOMERSET       CLOUDY    82  70  65 W5        30.13F
MIDDLESBORO    MOSUNNY   84  70  61 S5        30.14F
MONTICELLO     MOSUNNY   87  72  61 S5        30.14F HX  93
$$



USA.gov is the U.S. government's official web portal to all federal, state and local government web resources and services.